AirNav   Air Wisconsin Up To $57,000 Bonus
 
 884 users online  

KBNG Banning Municipal Airport
Banning, California, USA

GOING TO BANNING?


FAA INFORMATION EFFECTIVE 07 NOVEMBER 2019

Location

FAA Identifier: BNG
Lat/Long: 33-55-21.2000N 116-51-03.5000W
33-55.353333N 116-51.058333W
33.9225556,-116.8509722
(estimated)
Elevation: 2222.4 ft. / 677.4 m (surveyed)
Variation: 14E (1985)
From city: 1 mile SE of BANNING, CA
Time zone: UTC -8 (UTC -7 during Daylight Saving Time)
Zip code: 92220

Airport Operations

Airport use: Open to the public
Activation date: 04/1940
Control tower: no
ARTCC: LOS ANGELES CENTER
FSS: RIVERSIDE FLIGHT SERVICE STATION
NOTAMs facility: RAL (NOTAM-D service available)
Attendance: MON-FRI 0900-1530
FOR ARPT ATTENDANT CALL (951) 922-3320.
Wind indicator: lighted
Segmented circle: yes
Lights: ACTVT MIRL RWY 08/26 - CTAF.
Beacon: white-green (lighted land airport)
Operates sunset to sunrise.

Airport Communications

CTAF/UNICOM: 122.8
WX AWOS-3: 134.625 (951-922-4674)
WX AWOS-3 at HMT (14 nm SW): 118.375 (951-925-6886)
WX ASOS at PSP (18 nm E): PHONE 760-322-7597

Nearby radio navigation aids

VOR radial/distance  VOR name  Freq  Var
HDFr048/(18.8)HOMELAND VOR113.4014E
PSPr266/21.2PALM SPRINGS VORTAC115.5013E
RALr080/(29.9)RIVERSIDE VOR112.4014E
PDZr075/33.8PARADISE VORTAC112.2015E
TRMr284/38.7THERMAL VORTAC116.2013E

Airport Services

Fuel available: 100LL
FUEL AVBL WITH 24 HR SELF SVC CREDIT CARD. FUEL APN NOT LEVEL AND ACFT MAY NOT FILL COMPLETELY.
Parking: tiedowns
Airframe service: NONE
Powerplant service: NONE
Bottled oxygen: NONE
Bulk oxygen: NONE

Runway Information

Runway 8/26

Dimensions: 4955 x 100 ft. / 1510 x 30 m
Surface: asphalt, in fair condition
Weight bearing capacity: 
Single wheel: 12.5
Runway edge lights: medium intensity
Gradient: WEST
RUNWAY 8  RUNWAY 26
Latitude: 33-55.356430N33-55.349927N
Longitude: 116-51.548577W116-50.568532W
Elevation: 2222.4 ft.2103.8 ft.
Traffic pattern: leftright
Markings: basic, in fair conditionbasic, in fair condition
Visual slope indicator: 2-light PAPI on left (3.50 degrees glide path)
Touchdown point: yes, no lightsyes, no lights

Airport Ownership and Management from official FAA records

Ownership: Publicly-owned
Owner: CITY OF BANNING
P.O. BOX 998
BANNING, CA 92220
Phone (951) 922-3105
Manager: CARL SZOYKA
176 EAST LINCOLN STREET, PO BOX 998
BANNING, CA 92220-0998
Phone 951-922-3286

Airport Operational Statistics

Aircraft based on the field: 16
Single engine airplanes: 15
Helicopters: 1
    
Aircraft operations: avg 109/week *
75% transient general aviation
25% local general aviation
* for 12-month period ending 31 December 2018

Additional Remarks

NO INTERSECTION TAKEOFFS TO THE WEST.
RY 08/26 NO STRAIGHT-IN LANDINGS.
RWY 26 AFTER TAKEOFF AVOID OVERFLYING HOUSES 4 MILES WEST.
FOR CD CTC LOS ANGELES ARTCC AT 661-575-2079.

Instrument Procedures

There are no published instrument procedures at KBNG.

Some nearby airports with instrument procedures:

KHMT - Hemet-Ryan Airport (14 nm SW)
KREI - Redlands Municipal Airport (18 nm NW)
KPSP - Palm Springs International Airport (18 nm E)
KRIV - March Air Reserve Base (20 nm W)
L35 - Big Bear City Airport (20 nm N)
 
Loc | Ops | Rwys | IFR | FBO | Links
Com | Nav | Svcs | Stats | Notes

San Bernardino International Airport Authority
 
Area around KBNG (Banning Municipal Airport)
 
Road maps at: MapQuest Bing Google
 
Aerial photo
WARNING: Photo may not be current or correct
Aerial photo of KBNG (Banning Municipal Airport)
Photo taken 30-Oct-2013
looking southwest.

Do you have a better or more recent aerial photo of Banning Municipal Airport that you would like to share? If so, please send us your photo.

 
Sectional chart

 
Airport distance calculator
Flying to Banning Municipal Airport? Find the distance to fly.

From to KBNG

Sunrise and sunset
Times for 17-Nov-2019
 Local
(UTC-8)
 Zulu
(UTC)
Morning civil twilight05:5613:56
Sunrise06:2314:23
Sunset16:4200:42
Evening civil twilight17:0901:09

Current date and time
Zulu (UTC)  18-Nov-2019 04:10:03
Local (UTC-8)  17-Nov-2019 20:10:03
 
METAR
KPSP 
19nm E 
180353Z 29005KT 10SM CLR 25/M06 A3000 RMK AO2 SLP155 T02501061 $
KL35 
20nm N 
180355Z AUTO 00000KT 10SM CLR 00/M13 A3031 RMK AO2
KRIV 
21nm W 
180358Z AUTO 29006KT 10SM CLR 13/M06 A3000 RMK AO2 SLPNO T01321064
KSBD 
22nm NW 
180345Z 00000KT 7SM SKC 22/M06 A3000
KF70 
25nm SW 
180355Z AUTO 31003KT 10SM CLR 18/M05 A3001 RMK AO1
KRAL 
30nm W 
180353Z 07006KT 10SM CLR 23/M05 A2997 RMK AO2 SLP134 T02281050 $
TAF
KPSP 
19nm E 
171720Z 1718/1818 35006KT P6SM SKC
KRIV 
21nm W 
172002Z 1720/1902 30010KT 9999 SKC QNH2996INS WND 240V350 BECMG 1721/1722 04010G15KT 9999 SKC QNH2994INS WND 360V090 TEMPO 1721/1723 06012G20KT BECMG 1801/1802 04006KT 9999 SKC QNH2996INS BECMG 1805/1806 VRB04KT 9999 SKC QNH2999INS BECMG 1816/1817 11006KT 9999 SKC QNH2995INS BECMG 1820/1821 33010KT 9999 SKC QNH2986INS TX31/1722Z TN05/1813Z
KSBD 
22nm NW 
171720Z 1718/1818 VRB05KT P6SM SKC
NOTAMs
Click for the latest NOTAMs
NOTAMs are issued by the DoD/FAA and will open in a separate window not controlled by AirNav.

 

 
 

FBO, Fuel Providers, and Aircraft Ground Support

  
 Business Name 
 
 Contact 
 
 Services / Description 
 
Fuel Prices
 
Comments
  
City of Banning 951-922-3320
no information available

If you are affiliated with City of Banning and would like to show here your services, contact info, web link, logo, and more, click here
100LL
PS $4.67 
 Updated 14-Nov-2019
 
   1 read write
PS=Pump service
Update Fuel Prices
 

Would you like to see your business listed on this page?

 If your business provides an interesting product or service to pilots, flight crews, aircraft, or users of the Banning Municipal Airport, you should consider listing it here.  To start the listing process, click on the button below
 
Add a business
 

Other Pages about Banning Municipal Airport

www.ci.banning.ca.us/...
 
Update a link
 
Copyright © AirNav, LLC. All rights reserved. Privacy Policy  Contact